User: anonymous
Location: Unspecified
(0.0000°N, 0.0000°E)
Time: 11:34:32
(UTC+02:00)
Language:

Milstar 3 - Orbit

View from above orbital plane
View from above orbital plane
View from above satellite
View from above satellite

Ground track
Ground track

The orbit data is extracted from the following two-line orbital elements,

1 25724U 99023A   14095.74043106 0.00000000  00000-0  00000-0 0    00
2 25724  28.2025 201.4257 2141416  74.0682 285.9313  9.37456018    02
Epoch (UTC): 05 April 2014 17:46:13
Eccentricity: 0.2141416
inclination: 28.2025°
perigee height: 1088 km
apogee height: 5157 km
right ascension of ascending node: 201.4257°
argument of perigee: 74.0682°
revolutions per day: 9.37456018
mean anomaly at epoch: 285.9313°
orbit number at epoch: 0

The dashed part of the orbit path shows where the satellite is in the earth's shadow,  

DLR